Retour au catalogue

STARLINK-32947

ActifCommunicationsVLEO
NORAD 63121·PAYLOAD·🇺🇸 United States

Lancé Feb 27, 2025 depuis Cape Canaveral Space Force Station

Loading…

Prochains Passages (prochaines 24 heures)

TLE

FraisSource: CelesTrak SupGP

Époque: Sep 15, 2026, 03:07 UTC

1 63121C 25039T   26258.13034722  .00007865  00000+0  28481-3 0  2586
2 63121  43.0038  22.4183 0001692 267.5039 144.1975 15.27581495    12

Suivez STARLINK-32947 en temps réel avec AllMySat

Download on the App Store